N9WHM Weather Reports


time (UTC)temp
C
wind
direction
speed
KPH
gust
KPH
rain 1hr
cm
rain 24hr
cm
rain mn
cm
humidity
%
barometer
mb
20260504222009 21 37 12.9 16.1 0.00 0.00 0.00 31 1004.9
20260504221507 21 314 9.7 14.5 0.00 0.00 0.00 32 1004.6
20260504221003 21 6 19.3 22.5 0.00 0.00 0.00 31 1004.9
20260504220500 21 93 16.1 24.1 0.00 0.00 0.00 31 1004.5
20260504215956 21 14 6.4 9.7 0.00 0.00 0.00 32 1004.7
20260504215453 21 351 11.3 17.7 0.00 0.00 0.00 31 1004.5
20260504214950 21 348 17.7 20.9 0.00 0.00 0.00 30 1004.5
20260504214446 21 4 24.1 32.2 0.00 0.00 0.00 30 1004.6
20260504213943 21 3 17.7 22.5 0.00 0.00 0.00 29 1004.5
20260504213439 21 322 29.0 37.0 0.00 0.00 0.00 29 1004.3
20260504212937 22 332 22.5 32.2 0.00 0.00 0.00 28 1004.4
20260504212432 22 350 16.1 17.7 0.00 0.00 0.00 29 1004.2
20260504211931 22 18 11.3 14.5 0.00 0.00 0.00 29 1004.2
20260504211426 21 11 19.3 25.7 0.00 0.00 0.00 29 1004.0
20260504210924 22 44 12.9 16.1 0.00 0.00 0.00 30 1004.0
20260504210421 22 29 19.3 24.1 0.00 0.00 0.00 29 1003.8
20260504205918 22 39 4.8 4.8 0.00 0.00 0.00 29 1003.7
20260504205415 22 48 17.7 22.5 0.00 0.00 0.00 28 1003.5
20260504204913 22 27 16.1 20.9 0.00 0.00 0.00 28 1003.5
20260504204411 22 1 22.5 25.7 0.00 0.00 0.00 27 1003.6
20260504203911 22 305 11.3 12.9 0.00 0.00 0.00 29 1003.6
20260504203408 22 324 20.9 33.8 0.00 0.00 0.00 28 1003.3
20260504202903 22 351 17.7 24.1 0.00 0.00 0.00 29 1003.5
20260504202400 22 32 12.9 16.1 0.00 0.00 0.00 29 1003.3
20260504201856 22 37 20.9 29.0 0.00 0.00 0.00 30 1003.4
20260504201354 22 355 22.5 25.7 0.00 0.00 0.00 29 1003.2
20260504200851 22 342 11.3 17.7 0.00 0.00 0.00 29 1003.4
20260504200348 22 345 16.1 22.5 0.00 0.00 0.00 29 1003.1
20260504195845 23 20 14.5 17.7 0.00 0.00 0.00 29 1003.2
20260504195340 22 9 14.5 17.7 0.00 0.00 0.00 29 1003.1
20260504194837 22 17 17.7 22.5 0.00 0.00 0.00 29 1003.1
20260504194333 23 355 11.3 12.9 0.00 0.00 0.00 29 1003.0
20260504193830 23 97 11.3 16.1 0.00 0.00 0.00 29 1002.8
20260504193327 23 333 17.7 24.1 0.00 0.00 0.00 30 1002.9
20260504192826 23 38 14.5 16.1 0.00 0.00 0.00 30 1002.9
20260504192323 23 50 22.5 29.0 0.00 0.00 0.00 30 1002.6
20260504191822 23 346 11.3 12.9 0.00 0.00 0.00 30 1002.8
20260504191318 23 45 12.9 16.1 0.00 0.00 0.00 31 1002.8
20260504190814 23 14 14.5 16.1 0.00 0.00 0.00 31 1002.8
20260504190310 23 318 16.1 20.9 0.00 0.00 0.00 31 1002.8
20260504185807 23 41 9.7 12.9 0.00 0.00 0.00 31 1002.8
20260504185304 23 32 16.1 20.9 0.00 0.00 0.00 30 1002.7
20260504184800 23 353 8.0 12.9 0.00 0.00 0.00 32 1002.6
20260504184255 23 0 17.7 24.1 0.00 0.00 0.00 30 1002.7
20260504183752 23 12 14.5 17.7 0.00 0.00 0.00 31 1002.7
20260504183249 23 10 14.5 17.7 0.00 0.00 0.00 33 1002.7
20260504182747 23 343 6.4 9.7 0.00 0.00 0.00 34 1002.8
20260504182244 22 345 11.3 12.9 0.00 0.00 0.00 35 1002.5
20260504181741 23 53 12.9 20.9 0.00 0.00 0.00 34 1002.6
20260504181238 23 180 9.7 12.9 0.00 0.00 0.00 35 1002.5
20260504180738 22 332 17.7 20.9 0.00 0.00 0.00 34 1002.4
20260504180236 23 38 12.9 17.7 0.00 0.00 0.00 38 1002.5
20260504175733 23 339 8.0 9.7 0.00 0.00 0.00 38 1002.6
20260504175229 22 57 4.8 8.0 0.00 0.00 0.00 39 1002.4
20260504174728 23 20 8.0 11.3 0.00 0.00 0.00 40 1002.3
20260504174225 22 12 9.7 11.3 0.00 0.00 0.00 40 1002.3
20260504173721 22 359 14.5 17.7 0.00 0.00 0.00 39 1002.2
20260504173219 22 324 11.3 14.5 0.00 0.00 0.00 42 1002.4
20260504172716 22 16 16.1 17.7 0.00 0.00 0.00 41 1002.5
20260504172212 22 330 8.0 9.7 0.00 0.00 0.00 42 1002.4
20260504171708 22 336 9.7 12.9 0.00 0.00 0.00 42 1002.3
20260504171205 22 330 8.0 12.9 0.00 0.00 0.00 42 1002.4
20260504170701 22 357 8.0 9.7 0.00 0.00 0.00 44 1002.4
20260504170159 22 52 12.9 16.1 0.00 0.00 0.00 43 1002.5
20260504160118 23 343 12.9 14.5 0.00 0.00 0.00 34 1001.3
20260504151045 23 322 17.7 17.7 0.00 0.00 0.00 34 1001.1
20260504150543 23 298 24.1 27.4 0.00 0.00 0.00 34 1001.4
20260504141009 20 234 6.4 8.0 0.00 0.00 0.00 40 1001.6
20260504140505 20 223 4.8 4.8 0.00 0.00 0.00 41 1001.4
20260504130430 15 170 0.0 1.6 0.00 0.00 0.00 55 1002.3
20260504110317 9 182 0.0 0.0 0.00 0.00 0.00 71 1002.0
20260504100235 10 182 0.0 0.0 0.00 0.00 0.00 67 1002.5
20260504081627 10 183 0.0 0.0 0.00 0.00 0.00 63 1002.8
20260504081123 11 183 0.0 0.0 0.00 0.00 0.00 61 1003.1
20260504080620 11 183 1.6 1.6 0.00 0.00 0.00 60 1003.2
20260504080116 11 183 0.0 0.0 0.00 0.00 0.00 60 1003.2
20260504050433 11 157 1.6 1.6 0.00 0.00 0.00 58 1005.9
20260504045930 12 156 0.0 0.0 0.00 0.00 0.00 53 1006.0
20260504045426 11 156 0.0 0.0 0.00 0.00 0.00 55 1005.8
20260504044922 12 156 0.0 0.0 0.00 0.00 0.00 56 1005.9
20260504044420 12 156 0.0 0.0 0.00 0.00 0.00 53 1006.0
20260504043917 12 156 0.0 0.0 0.00 0.00 0.00 53 1006.0
20260504043414 12 156 0.0 0.0 0.00 0.00 0.00 51 1006.2
20260504042911 12 156 0.0 0.0 0.00 0.00 0.00 52 1006.1
20260504042408 12 156 0.0 0.0 0.00 0.00 0.00 54 1006.3
20260504041904 12 156 0.0 0.0 0.00 0.00 0.00 49 1006.5
20260504041400 12 156 1.6 1.6 0.00 0.00 0.00 50 1006.4
20260504040856 12 156 1.6 3.2 0.00 0.00 0.00 48 1006.3
20260504040354 12 158 1.6 1.6 0.00 0.00 0.00 55 1006.6
20260504035849 12 170 4.8 4.8 0.00 0.00 0.00 54 1006.5
20260504035348 13 151 1.6 1.6 0.00 0.00 0.00 53 1006.4
20260504034844 14 150 0.0 0.0 0.00 0.00 0.00 52 1006.4
20260504034342 14 150 0.0 0.0 0.00 0.00 0.00 51 1006.5
20260504033838 14 150 0.0 0.0 0.00 0.00 0.00 49 1006.8
20260504033337 14 150 0.0 0.0 0.00 0.00 0.00 49 1006.9
20260504032833 14 150 1.6 1.6 0.00 0.00 0.00 52 1006.7
20260504032330 15 150 1.6 3.2 0.00 0.00 0.00 46 1006.8
20260504031827 15 157 1.6 3.2 0.00 0.00 0.00 47 1006.9
20260504031324 16 186 0.0 0.0 0.00 0.00 0.00 45 1007.0
20260504030820 16 191 0.0 0.0 0.00 0.00 0.00 40 1006.8
20260504030318 16 192 1.6 1.6 0.00 0.00 0.00 39 1007.0
20260504025814 16 198 1.6 1.6 0.00 0.00 0.00 40 1007.0
20260504025311 16 198 0.0 0.0 0.00 0.00 0.00 45 1006.9
20260504024807 15 198 1.6 1.6 0.00 0.00 0.00 46 1006.9
20260504024304 16 199 0.0 0.0 0.00 0.00 0.00 44 1006.9
20260504023800 16 200 0.0 0.0 0.00 0.00 0.00 41 1006.8
20260504023257 16 200 0.0 0.0 0.00 0.00 0.00 41 1006.9
20260504022753 17 200 0.0 0.0 0.00 0.00 0.00 41 1006.9
20260504022249 17 200 0.0 0.0 0.00 0.00 0.00 40 1007.1
20260504021746 17 200 0.0 0.0 0.00 0.00 0.00 42 1007.1
20260504021244 17 204 0.0 0.0 0.00 0.00 0.00 39 1007.1
20260504020741 17 204 0.0 0.0 0.00 0.00 0.00 41 1007.2
20260504020237 17 204 0.0 0.0 0.00 0.00 0.00 39 1007.2
20260504015733 18 204 0.0 0.0 0.00 0.00 0.00 37 1007.1
20260504015230 18 204 0.0 0.0 0.00 0.00 0.00 39 1007.1
20260504014726 18 204 0.0 0.0 0.00 0.00 0.00 37 1007.2
20260504014223 18 204 0.0 0.0 0.00 0.00 0.00 36 1007.2
20260504013720 18 205 0.0 0.0 0.00 0.00 0.00 36 1007.4
20260504013218 19 206 0.0 0.0 0.00 0.00 0.00 35 1007.4
20260504012714 20 207 0.0 0.0 0.00 0.00 0.00 34 1007.4
20260504012212 20 255 0.0 0.0 0.00 0.00 0.00 34 1007.3
20260504011709 21 259 0.0 0.0 0.00 0.00 0.00 33 1007.4
20260504011205 21 259 0.0 0.0 0.00 0.00 0.00 31 1007.5
20260504010701 21 260 1.6 1.6 0.00 0.00 0.00 30 1007.8
20260504010157 22 260 0.0 0.0 0.00 0.00 0.00 30 1007.5
20260504005654 22 261 0.0 0.0 0.00 0.00 0.00 30 1007.6
20260504005151 22 275 3.2 3.2 0.00 0.00 0.00 29 1007.6
20260504004649 22 312 6.4 8.0 0.00 0.00 0.00 29 1007.8
20260504004146 22 289 3.2 4.8 0.00 0.00 0.00 28 1007.6
20260504003642 22 340 1.6 3.2 0.00 0.00 0.00 29 1008.1
20260504003139 22 314 3.2 4.8 0.00 0.00 0.00 29 1007.8
20260504002636 23 270 6.4 8.0 0.00 0.00 0.00 28 1008.1
20260504002133 23 328 8.0 11.3 0.00 0.00 0.00 27 1008.2
20260504001631 23 353 6.4 8.0 0.00 0.00 0.00 28 1007.9
20260504001127 23 284 8.0 9.7 0.00 0.00 0.00 27 1007.8
20260504000624 23 278 8.0 9.7 0.00 0.00 0.00 28 1008.1
20260504000121 23 290 8.0 9.7 0.00 0.00 0.00 28 1008.1
20260503235620 23 274 9.7 11.3 0.00 0.00 0.00 28 1007.8
20260503235116 23 314 11.3 14.5 0.00 0.00 0.00 27 1007.9
20260503234614 23 287 16.1 22.5 0.00 0.00 0.00 27 1008.2
20260503234112 23 280 8.0 8.0 0.00 0.00 0.00 28 1008.2
20260503233609 23 354 8.0 9.7 0.00 0.00 0.00 27 1008.2
20260503233059 23 274 8.0 9.7 0.00 0.00 0.00 27 1008.3
20260503232556 23 291 8.0 8.0 0.00 0.00 0.00 27 1008.1
20260503232053 23 306 9.7 11.3 0.00 0.00 0.00 27 1008.2
20260503231551 23 348 8.0 11.3 0.00 0.00 0.00 27 1008.1
20260503231048 23 31 4.8 8.0 0.00 0.00 0.00 28 1007.9
20260503230544 23 331 9.7 12.9 0.00 0.00 0.00 27 1008.2
20260503230042 23 327 12.9 14.5 0.00 0.00 0.00 27 1008.2
20260503225538 23 322 11.3 12.9 0.00 0.00 0.00 27 1008.2
20260503225039 23 14 4.8 9.7 0.00 0.00 0.00 29 1008.4
20260503224537 23 348 12.9 16.1 0.00 0.00 0.00 28 1008.4
20260503224035 23 295 9.7 11.3 0.00 0.00 0.00 27 1008.2
20260503223532 23 262 4.8 4.8 0.00 0.00 0.00 27 1008.3
20260503223027 23 8 4.8 4.8 0.00 0.00 0.00 27 1008.4
20260503222525 23 230 3.2 3.2 0.00 0.00 0.00 28 1008.4